• Em Portugal
  • Lista de países
  • Para 7 dias
  • Temperatura da água
  • Mapas de satélite
  • Mapa do tempo
  • Widgets de tempo
  • user-avatar
    Iniciar Sessão

    Previsão horária em Basejn

    Hoje, 20 Setembro, Quinta-feira

    Tempo Temperatura Precipitação Vento Pressão Humidade
    00:00 +27°C° 0.2 mm 4 m/s 754 mmHg 93%
    01:00 +27°C° 0.1 mm 4 m/s 754 mmHg 93%
    02:00 +27°C° 0.1 mm 4 m/s 754 mmHg 93%
    03:00 +27°C° 0.1 mm 5 m/s 753 mmHg 93%
    04:00 +27°C° 0.3 mm 5 m/s 754 mmHg 93%
    05:00 +27°C° 0.3 mm 5 m/s 754 mmHg 93%
    06:00 +27°C° 0.3 mm 5 m/s 754 mmHg 93%
    07:00 +27°C° 0.9 mm 5 m/s 755 mmHg 90%
    08:00 +28°C° 0.9 mm 6 m/s 755 mmHg 87%
    09:00 +29°C° 0.9 mm 6 m/s 756 mmHg 84%
    10:00 +29°C° 1.4 mm 6 m/s 756 mmHg 84%
    11:00 +29°C° 1.4 mm 6 m/s 755 mmHg 84%
    12:00 +29°C° 1.4 mm 6 m/s 755 mmHg 85%
    13:00 +30°C° 0.9 mm 5 m/s 755 mmHg 83%
    14:00 +30°C° 0.9 mm 5 m/s 754 mmHg 82%
    15:00 +30°C° 0.9 mm 5 m/s 754 mmHg 81%
    16:00 +29°C° 0.4 mm 4 m/s 754 mmHg 83%
    17:00 +29°C° 0.4 mm 3 m/s 754 mmHg 86%
    18:00 +28°C° 0.4 mm 3 m/s 754 mmHg 88%
    19:00 +28°C° 0 mm 3 m/s 755 mmHg 90%
    20:00 +27°C° 0 mm 2 m/s 755 mmHg 91%
    21:00 +27°C° 0 mm 2 m/s 756 mmHg 92%
    22:00 +27°C° 0.7 mm 2 m/s 756 mmHg 93%
    23:00 +27°C° 0.7 mm 2 m/s 756 mmHg 94%

    Amanhã, 21 Setembro, Sexta-feira

    Tempo Temperatura Precipitação Vento Pressão Humidade
    00:00 +26°C° 0.7 mm 2 m/s 756 mmHg 95%
    01:00 +26°C° 1.9 mm 2 m/s 756 mmHg 95%
    02:00 +26°C° 1.9 mm 2 m/s 755 mmHg 96%
    03:00 +26°C° 1.9 mm 2 m/s 755 mmHg 97%
    04:00 +26°C° 1.4 mm 2 m/s 755 mmHg 96%
    05:00 +26°C° 1.4 mm 2 m/s 756 mmHg 95%
    06:00 +26°C° 1.4 mm 2 m/s 756 mmHg 94%
    07:00 +28°C° 0.4 mm 2 m/s 756 mmHg 88%
    08:00 +29°C° 0.4 mm 2 m/s 757 mmHg 83%
    09:00 +31°C° 0.4 mm 2 m/s 757 mmHg 77%
    10:00 +32°C° 0.1 mm 2 m/s 757 mmHg 71%
    11:00 +34°C° 0.1 mm 2 m/s 757 mmHg 66%
    12:00 +35°C° 0.1 mm 2 m/s 756 mmHg 61%
    13:00 +35°C° 1.7 mm 2 m/s 756 mmHg 64%
    14:00 +34°C° 1.7 mm 2 m/s 755 mmHg 67%
    15:00 +34°C° 1.7 mm 2 m/s 755 mmHg 69%
    16:00 +31°C° 1.2 mm 2 m/s 755 mmHg 75%
    17:00 +30°C° 1.2 mm 2 m/s 755 mmHg 81%
    18:00 +29°C° 1.2 mm 2 m/s 755 mmHg 86%
    19:00 +28°C° 0 mm 2 m/s 756 mmHg 88%
    20:00 +28°C° 0 mm 2 m/s 757 mmHg 89%
    21:00 +28°C° 0 mm 1 m/s 757 mmHg 90%
    22:00 +27°C° 0 mm 2 m/s 757 mmHg 91%
    23:00 +27°C° 0 mm 2 m/s 757 mmHg 91%

    Depois de amanhã, 22 Setembro, Sábado

    Tempo Temperatura Precipitação Vento Pressão Humidade
    00:00 +27°C° 0 mm 2 m/s 757 mmHg 92%
    01:00 +27°C° 0 mm 1 m/s 756 mmHg 92%
    02:00 +27°C° 0 mm 1 m/s 756 mmHg 92%
    03:00 +27°C° 0 mm 1 m/s 756 mmHg 93%
    04:00 +27°C° 0 mm 1 m/s 756 mmHg 93%
    05:00 +27°C° 0 mm 1 m/s 756 mmHg 93%
    06:00 +27°C° 0 mm 1 m/s 756 mmHg 93%
    07:00 +29°C° 0 mm 1 m/s 757 mmHg 86%
    08:00 +30°C° 0 mm 2 m/s 758 mmHg 78%
    09:00 +32°C° 0 mm 2 m/s 758 mmHg 71%
    10:00 +34°C° 0 mm 2 m/s 758 mmHg 67%
    11:00 +35°C° 0 mm 2 m/s 757 mmHg 63%
    12:00 +36°C° 0 mm 2 m/s 757 mmHg 59%
    13:00 +35°C° 0.1 mm 2 m/s 756 mmHg 61%
    14:00 +35°C° 0.1 mm 3 m/s 755 mmHg 63%
    15:00 +35°C° 0.1 mm 3 m/s 754 mmHg 65%
    16:00 +33°C° 0.2 mm 3 m/s 755 mmHg 71%
    17:00 +31°C° 0.2 mm 3 m/s 755 mmHg 77%
    18:00 +29°C° 0.2 mm 3 m/s 755 mmHg 83%
    19:00 +29°C° 0 mm 3 m/s 756 mmHg 84%
    20:00 +29°C° 0 mm 3 m/s 756 mmHg 85%
    21:00 +28°C° 0 mm 2 m/s 757 mmHg 86%
    22:00 +28°C° 0 mm 3 m/s 757 mmHg 87%
    23:00 +28°C° 0 mm 3 m/s 757 mmHg 88%

    23 Setembro, Domingo

    Tempo Temperatura Precipitação Vento Pressão Humidade
    00:00 +28°C° 0 mm 3 m/s 757 mmHg 88%
    01:00 +28°C° 0 mm 2 m/s 756 mmHg 88%
    02:00 +28°C° 0 mm 2 m/s 756 mmHg 89%
    03:00 +28°C° 0 mm 2 m/s 755 mmHg 89%
    04:00 +28°C° 0 mm 2 m/s 756 mmHg 90%
    05:00 +28°C° 0 mm 2 m/s 756 mmHg 91%
    06:00 +28°C° 0 mm 2 m/s 756 mmHg 91%
    07:00 +29°C° 0 mm 2 m/s 757 mmHg 85%
    08:00 +31°C° 0 mm 2 m/s 757 mmHg 78%
    09:00 +32°C° 0 mm 2 m/s 758 mmHg 71%
    10:00 +34°C° 0 mm 2 m/s 757 mmHg 67%
    11:00 +35°C° 0 mm 2 m/s 757 mmHg 64%
    12:00 +36°C° 0 mm 2 m/s 756 mmHg 60%
    13:00 +35°C° 1 mm 2 m/s 755 mmHg 63%
    14:00 +35°C° 1 mm 3 m/s 755 mmHg 66%
    15:00 +34°C° 1 mm 3 m/s 754 mmHg 68%
    16:00 +32°C° 1.1 mm 2 m/s 755 mmHg 75%
    17:00 +31°C° 1.1 mm 2 m/s 755 mmHg 81%
    18:00 +29°C° 1.1 mm 2 m/s 755 mmHg 87%
    19:00 +29°C° 0.4 mm 2 m/s 756 mmHg 89%
    20:00 +29°C° 0.4 mm 2 m/s 756 mmHg 90%
    21:00 +28°C° 0.4 mm 2 m/s 757 mmHg 92%
    22:00 +28°C° 0.2 mm 2 m/s 757 mmHg 93%
    23:00 +28°C° 0.2 mm 2 m/s 756 mmHg 93%

    24 Setembro, Segunda-feira

    Tempo Temperatura Precipitação Vento Pressão Humidade
    00:00 +28°C° 0.2 mm 2 m/s 756 mmHg 94%
    01:00 +28°C° 0.3 mm 2 m/s 756 mmHg 94%
    02:00 +27°C° 0.3 mm 1 m/s 755 mmHg 94%
    03:00 +27°C° 0.3 mm 1 m/s 755 mmHg 94%
    04:00 +27°C° 0.1 mm 1 m/s 755 mmHg 94%
    05:00 +27°C° 0.1 mm 1 m/s 756 mmHg 94%
    06:00 +28°C° 0.1 mm 1 m/s 756 mmHg 94%
    07:00 +29°C° 0.2 mm 1 m/s 757 mmHg 88%
    08:00 +30°C° 0.2 mm 1 m/s 757 mmHg 83%
    09:00 +31°C° 0.2 mm 1 m/s 758 mmHg 77%
    10:00 +32°C° 0.6 mm 2 m/s 757 mmHg 74%
    11:00 +32°C° 0.6 mm 2 m/s 757 mmHg 72%
    12:00 +34°C° 0.6 mm 2 m/s 756 mmHg 69%
    13:00 +33°C° 1.1 mm 3 m/s 756 mmHg 72%
    14:00 +33°C° 1.1 mm 3 m/s 755 mmHg 76%
    15:00 +31°C° 1.1 mm 3 m/s 755 mmHg 79%
    16:00 +30°C° 0.7 mm 3 m/s 755 mmHg 83%
    17:00 +29°C° 0.7 mm 2 m/s 755 mmHg 86%
    18:00 +28°C° 0.7 mm 2 m/s 755 mmHg 90%
    19:00 +28°C° 0.2 mm 2 m/s 756 mmHg 91%
    20:00 +28°C° 0.2 mm 2 m/s 756 mmHg 92%
    21:00 +27°C° 0.2 mm 1 m/s 757 mmHg 92%
    22:00 +27°C° 0.2 mm 1 m/s 756 mmHg 93%
    23:00 +27°C° 0.2 mm 1 m/s 756 mmHg 93%

    25 Setembro, Terça-feira

    Tempo Temperatura Precipitação Vento Pressão Humidade
    00:00 +27°C° 0.2 mm 1 m/s 756 mmHg 93%
    01:00 +27°C° 0.2 mm 1 m/s 755 mmHg 94%
    02:00 +27°C° 0.2 mm 1 m/s 755 mmHg 94%
    03:00 +27°C° 0.2 mm 1 m/s 755 mmHg 94%
    04:00 +27°C° 0 mm 1 m/s 755 mmHg 94%
    05:00 +27°C° 0 mm 1 m/s 755 mmHg 94%
    06:00 +27°C° 0 mm 1 m/s 756 mmHg 94%
    07:00 +28°C° 0.2 mm 1 m/s 756 mmHg 87%
    08:00 +30°C° 0.2 mm 1 m/s 757 mmHg 81%
    09:00 +31°C° 0.2 mm 2 m/s 757 mmHg 74%
    10:00 +32°C° 1.3 mm 2 m/s 757 mmHg 73%
    11:00 +32°C° 1.3 mm 2 m/s 756 mmHg 72%
    12:00 +33°C° 1.3 mm 3 m/s 756 mmHg 71%
    13:00 +33°C° 1.2 mm 3 m/s 755 mmHg 73%
    14:00 +33°C° 1.2 mm 3 m/s 755 mmHg 75%
    15:00 +32°C° 1.2 mm 4 m/s 754 mmHg 77%
    16:00 +30°C° 0.3 mm 3 m/s 754 mmHg 80%
    17:00 +29°C° 0.3 mm 3 m/s 754 mmHg 84%
    18:00 +28°C° 0.3 mm 2 m/s 755 mmHg 88%
    19:00 +28°C° 0 mm 2 m/s 755 mmHg 89%
    20:00 +28°C° 0 mm 2 m/s 756 mmHg 90%
    21:00 +27°C° 0 mm 2 m/s 756 mmHg 91%
    22:00 +27°C° 0 mm 2 m/s 756 mmHg 92%
    23:00 +27°C° 0 mm 2 m/s 755 mmHg 92%
    Mostrar mais